Terminal Aerodrome Forecast
Issued by NWS

Home | Current Version | Previous Version | Text Only | Print | Product List | Glossary On
Versions: 1 2 3 4 5 6 7 8 9 10 11 12 13 14 15 16 17 18 19 20 21 22 23 24
878
FTUS41 KOKX 171609 AAC
TAFSWF
TAF AMD
KSWF 171609Z 1716/1818 VRB04KT 6SM -RA BR SCT030 OVC050
     FM171800 11006KT 5SM -RA BR BKN030 OVC050
     FM172000 09005KT 2SM -RA BR OVC005
     FM180400 04005KT 1SM -RA BR OVC003
     FM181300 01006KT 2SM -RA BR OVC007
      AMD NOT SKED=

USA.gov is the U.S. government's official web portal to all federal, state and local government web resources and services.